Location: Ceske Budejovice
(48.9830°N, 14.4670°E)
Time: 10:07:20
(UTC+02:00)

ISS - Visible Passes

Search period start: 15 May 2021 00:00
Search period end: 25 May 2021 00:00
Orbit: 417 x 422 km, 51.6° (Epoch: 15 May)

Date Brightness Start Highest point End Pass type
(mag) Time Alt. Az. Time Alt. Az. Time Alt. Az.
15 May -3.2 00:28:14 10° W 00:31:34 58° N 00:34:55 10° ENE visible
15 May -3.2 02:05:19 10° WNW 02:08:40 60° NNE 02:12:01 10° E visible
15 May -3.6 03:42:12 10° WNW 03:45:27 47° SSW 03:48:43 10° SE visible
15 May -3.1 22:04:19 10° SSW 22:07:24 34° SE 22:10:29 10° E visible
15 May -3.5 23:40:43 10° W 23:44:05 69° NNW 23:47:27 10° ENE visible
16 May -3.0 01:17:50 10° WNW 01:21:09 53° N 01:24:28 10° E visible
16 May -3.9 02:54:42 10° WNW 02:58:04 68° SSW 03:01:25 10° ESE visible
16 May -2.0 04:32:24 10° W 04:34:23 15° SW 04:36:23 10° S visible
16 May -2.6 21:17:21 10° SSW 21:20:04 23° SE 21:22:49 10° E visible
16 May -3.8 22:53:13 10° WSW 22:56:36 86° NNW 22:59:59 10° ENE visible
17 May -2.9 00:30:19 10° WNW 00:33:37 51° N 00:36:56 10° ENE visible
17 May -3.9 02:07:14 10° WNW 02:10:37 90° NNE 02:14:00 10° ESE visible
17 May -2.6 03:45:03 13° W 03:47:07 22° SW 03:49:47 10° SSE visible
17 May -3.9 22:05:48 10° WSW 22:09:10 71° SSE 22:12:31 10° ENE visible
17 May -3.0 23:42:47 10° W 23:46:05 53° N 23:49:24 10° ENE visible
18 May -3.5 01:19:46 10° WNW 01:22:53 67° NNW 01:22:53 67° NNW visible
18 May -3.6 21:18:28 10° SW 21:21:44 50° SSE 21:25:01 10° ENE visible
18 May -3.2 22:55:13 10° W 22:58:33 58° N 23:01:54 10° ENE visible
19 May -3.3 00:32:17 10° WNW 00:35:38 60° N 00:36:27 43° ENE visible
19 May -1.1 02:09:10 10° WNW 02:09:22 11° WNW 02:09:22 11° WNW visible
19 May -3.4 22:07:41 10° W 22:11:02 69° NNW 22:14:24 10° ENE visible
19 May -3.0 23:44:47 10° WNW 23:48:06 53° N 23:50:16 19° ENE visible
20 May -2.0 01:21:40 10° WNW 01:23:11 24° WNW 01:23:11 24° WNW visible
20 May -3.7 21:20:10 10° WSW 21:23:33 86° NNW 21:26:56 10° ENE visible
20 May -2.9 22:57:15 10° WNW 23:00:34 51° N 23:03:52 10° ENE visible
21 May -3.5 00:34:11 10° WNW 00:37:05 64° WNW 00:37:05 64° WNW visible
21 May -2.9 22:09:42 10° W 22:13:01 53° N 22:16:20 10° ENE visible
21 May -3.6 23:46:42 10° WNW 23:50:04 71° NNE 23:51:02 42° E visible
22 May -1.1 01:23:40 10° W 01:23:58 12° W 01:23:58 12° W visible
22 May -3.1 21:22:08 10° W 21:25:28 58° N 21:28:48 10° ENE visible
22 May -3.3 22:59:12 10° WNW 23:02:32 60° N 23:05:00 17° E visible
23 May -2.3 00:36:04 10° WNW 00:37:57 28° W 00:37:57 28° W visible
23 May -3.0 22:11:41 10° WNW 22:15:00 53° N 22:18:19 10° E visible
23 May -3.9 23:48:33 10° WNW 23:51:55 67° SSW 23:51:57 67° SSW visible
24 May -2.9 21:24:08 10° WNW 21:27:26 51° N 21:30:44 10° ENE visible
24 May -3.8 23:01:03 10° WNW 23:04:26 90° SSE 23:05:59 30° ESE visible
